Content
SEND FEEDBACK

Daily
Averages
Monthly
Summary
United States of America

MIDDLETON, PENNSYLVANIA


Home > North America > United States > Pennsylvania
Elevation: 371 feet     Latitude: 40 12N     Longitude: 076 46W

WEATHER
 
SELECT A DAY
Number of Records: 195,069;   Date Range: 1/1/95 - 7/26/14
 
SHARE

PRINT THIS DATA

[ ← Previous Day ]
WEATHER ALMANAC - JANUARY 23, 2013
[ Next Day → ]
[ °C ]   °F
Weather ElementAverageHighLow
Temperature15.3 °F19.9 °F (2:56 pm)12 °F (1:56 am)
Dewpoint1 °F3 °F (10:56 pm)-0.9 °F (2:56 pm)
Humidity53.9 %67 % (10:56 pm)40 % (2:56 pm)
Barometer30.25 in30.32 in (8:56 am)30.17 in (11:56 pm)
Wind Speed7.7 mph18.4 mph (2:56 pm)
Wind Gust21.9 mph (12:56 pm)
Weather ElementAverage
Visibility10 mi
Wind DirectionSSW (203 °)

Weather ElementTotal
Precipitation---
Heating Degree Days49.1 (Base 65)
Averaged from 23 records on January 23, 2013
WEATHER CONDITIONS BREAKOUT
WIND DIRECTION BREAKOUT
WEATHER BY HOUR - JANUARY 23, 2013
[ °C ]   °F
Local TimeTemperatureDewpointHumidityBarometerVisibilityWind DirectionWind SpeedGust SpeedPrecipitationEventsConditions
1:56 AM12.0 °F0.0 °F59 %30.27 in10.0 miWest (280°)8.1 mphClear
2:56 AM12.9 °F1.0 °F59 %30.28 in10.0 miWest (270°)8.1 mphScattered Clouds
3:56 AM12.9 °F1.0 °F59 %30.28 in10.0 miWest (280°)11.5 mphPartly Cloudy
4:56 AM12.0 °F1.0 °F61 %30.28 in10.0 miWest (280°)10.4 mphClear
5:56 AM12.0 °F0.0 °F59 %30.29 in10.0 miWest (260°)6.9 mphClear
6:56 AM12.0 °F1.0 °F61 %30.29 in10.0 miWest (270°)6.9 mphClear
7:56 AM12.0 °F1.9 °F64 %30.30 in10.0 miVariable5.8 mphClear
8:56 AM14.0 °F1.9 °F59 %30.32 in10.0 miWest (280°)11.5 mphClear
9:56 AM15.1 °F0.0 °F51 %30.32 in10.0 miWest (270°)11.5 mph19.6 mphScattered Clouds
10:56 AM17.1 °F1.9 °F52 %30.32 in10.0 miWest (280°)12.7 mph17.3 mphMostly Cloudy
11:56 AM17.1 °F0.0 °F47 %30.28 in10.0 miWest (260°)6.9 mph16.1 mphMostly Cloudy
12:56 PM18.0 °F1.0 °F48 %30.23 in10.0 miWSW (240°)13.8 mph21.9 mphMostly Cloudy
1:56 PM19.0 °F1.0 °F46 %30.22 in10.0 miWest (280°)5.8 mph20.7 mphMostly Cloudy
2:56 PM19.9 °F-0.9 °F40 %30.22 in10.0 miWNW (300°)18.4 mph21.9 mphScattered Clouds
3:56 PM19.9 °F1.9 °F46 %30.22 in10.0 miWSW (250°)8.1 mphScattered Clouds
4:56 PM19.0 °F1.0 °F46 %30.22 in10.0 miWest (280°)13.8 mphScattered Clouds
5:56 PM18.0 °F1.0 °F48 %30.22 in10.0 miWNW (290°)8.1 mphScattered Clouds
6:56 PM18.0 °F1.0 °F48 %30.21 in10.0 miWNW (300°)8.1 mphScattered Clouds
7:56 PM15.1 °F0.0 °F51 %30.20 in10.0 miCalmPartly Cloudy
8:56 PM12.9 °F1.0 °F59 %30.20 in10.0 miCalmMostly Cloudy
9:56 PM15.1 °F0.0 °F51 %30.21 in10.0 miCalmScattered Clouds
10:56 PM12.0 °F3.0 °F67 %30.19 in10.0 miCalmOvercast
11:56 PM15.1 °F3.0 °F59 %30.17 in10.0 miCalmOvercast
Hourly data recorded from KMDT, located miles away from Middleton, Pennsylvania







STORIES FROM OUR PARTNERS